NW Arkansas Airport, AR

6:26 PM CDT on March 25, 2017 (GMT -0500)
Northwest Arkansas Regional

Weather History for KXNA - September, 2013

Change the Weather History Date:

Monday, September 23, 2013

  Actual Average (KVBT) Record (KVBT)
Temperature  
Mean Temperature 64 °F -  
Max Temperature 79 °F 77 °F 95 °F (1948)
Min Temperature 51 °F 53 °F 32 °F (1982)
Growing Degree Days 14 (Base 50)    
Moisture  
Dew Point 52 °F    
Average Humidity 67    
Maximum Humidity 92    
Minimum Humidity 39    
Precipitation  
Precipitation 0.00 in - - ()
Sea Level Pressure  
Sea Level Pressure 29.88 in    
Wind  
Wind Speed 5 mph (SE)    
Max Wind Speed 14 mph    
Max Gust Speed 17 mph    
Visibility 10 miles    
Events      
Averages and records for this station are not official NWS values.
T = Trace of Precipitation, MM = Missing Value Source: NWS Daily Summary

Daily Weather History Graph

Daily Weather History Graph

Search for Another Location

Airport or City:

Trip Planner

Search our weather history database for the weather conditions in past years. The results will help you decide how hot, cold, wet, or windy it might be!

Date:

Astronomy

Sep. 23, 2013 Rise Set
Actual Time 7:06 AM CDT 7:12 PM CDT
Civil Twilight 6:40 AM CDT 7:37 PM CDT
Nautical Twilight 6:10 AM CDT 8:07 PM CDT
Astronomical Twilight 5:40 AM CDT 8:38 PM CDT
Moon 9:53 PM CDT (9/23) 11:17 AM CDT (9/23)
Length of Visible Light 12h 57m
Length of Day
12h 06m
Waning Gibbous, 81% of the Moon is Illuminated
Sep 23
Waning Gibbous
Sep 26
Last Quarter
Oct 4
New
Oct 11
First Quarter
Oct 18
Full

Hourly Weather History & Observations

Time (CDT) Temp. Dew Point Humidity Pressure Visibility Wind Dir Wind Speed Gust Speed Precip Events Conditions
12:53 AM 57.0 °F 51.1 °F 81% 29.89 in 10.0 mi SE 4.6 mph - N/A   Clear
1:53 AM 57.0 °F 50.0 °F 77% 29.88 in 10.0 mi SE 4.6 mph - N/A   Clear
2:53 AM 55.0 °F 50.0 °F 83% 29.89 in 10.0 mi Calm Calm - N/A   Clear
3:53 AM 51.1 °F 48.9 °F 92% 29.90 in 10.0 mi Calm Calm - N/A   Clear
4:53 AM 52.0 °F 48.9 °F 89% 29.90 in 10.0 mi Calm Calm - N/A   Clear
5:53 AM 51.1 °F 48.9 °F 92% 29.90 in 10.0 mi East 4.6 mph - N/A   Clear
6:53 AM 52.0 °F 48.9 °F 89% 29.92 in 10.0 mi Calm Calm - N/A   Clear
7:53 AM 53.1 °F 50.0 °F 89% 29.92 in 10.0 mi ESE 4.6 mph - N/A   Clear
8:53 AM 57.9 °F 51.1 °F 78% 29.93 in 10.0 mi SE 4.6 mph - N/A   Clear
9:53 AM 63.0 °F 53.1 °F 70% 29.92 in 10.0 mi SE 8.1 mph - N/A   Clear
10:53 AM 68.0 °F 53.1 °F 59% 29.92 in 10.0 mi South 13.8 mph - N/A   Clear
11:53 AM 71.1 °F 53.1 °F 53% 29.91 in 10.0 mi Variable 6.9 mph - N/A   Clear
12:53 PM 73.9 °F 52.0 °F 46% 29.89 in 10.0 mi SE 5.8 mph - N/A   Clear
1:53 PM 75.9 °F 52.0 °F 43% 29.85 in 10.0 mi South 11.5 mph - N/A   Clear
2:53 PM 77.0 °F 52.0 °F 42% 29.83 in 10.0 mi Variable 6.9 mph - N/A   Clear
3:53 PM 78.1 °F 52.0 °F 40% 29.81 in 10.0 mi ESE 12.7 mph 17.3 mph N/A   Clear
4:53 PM 78.1 °F 51.1 °F 39% 29.80 in 10.0 mi ESE 11.5 mph - N/A   Clear
5:53 PM 75.9 °F 51.1 °F 42% 29.81 in 9.0 mi SSE 12.7 mph - N/A   Clear
6:53 PM 71.1 °F 52.0 °F 51% 29.84 in 10.0 mi South 6.9 mph - N/A   Clear
7:53 PM 66.9 °F 53.1 °F 61% 29.84 in 10.0 mi SSE 8.1 mph - N/A   Clear
8:53 PM 64.0 °F 53.1 °F 67% 29.86 in 10.0 mi Calm Calm - N/A   Clear
9:53 PM 63.0 °F 53.1 °F 70% 29.88 in 10.0 mi WSW 3.5 mph - N/A   Clear
10:53 PM 63.0 °F 54.0 °F 72% 29.90 in 10.0 mi Calm Calm - N/A   Mostly Cloudy
11:53 PM 60.1 °F 54.0 °F 80% 29.89 in 10.0 mi Calm Calm - N/A   Partly Cloudy